Location: Unspecified
(0.0000°N, 0.0000°E)
Time: 03:42:44
(UTC+00:00)

Tiangong 2 - Pass Details

Date: 22 November 2017
Orbit: 386 x 390 km, 42.8° (Epoch: 12 December)

Event Time Altitude Azimuth Distance (km) Brightness Sun altitude
Exits shadow 04:03:59 - 187° (S) 1,664 4.4 -23.9°
Reaches altitude 10° 04:04:50 10° 177° (S) 1,412 4.2 -23.7°
Maximum altitude 04:06:58 17° 135° (SE) 1,087 4.1 -23.2°
Drops below altitude 10° 04:09:05 10° 93° (E) 1,410 4.9 -22.7°
Sets 04:11:40 0° 71° (ENE) 2,262 5.7 -22.1°
